Wind_Speed
30 30 30 28 28 25 24 23 23 22 27 34 33 36 34 32 26 23 19 19 14 10 10 7 7 12 16 17 19 20 21 4 10 20 24 28 28 29 28 31 35 33 31 29
31 31 31 30 32 32 29 28 24 23 24 28 34 34 35 33 28 24 22 21 17 13 12 8 5 9 14 15 17 18 22 12 5 9 16 26 32 32 32 30 29 29 29 27
31 32 32 33 34 36 35 33 29 26 24 25 32 35 34 32 32 26 26 23 21 16 13 12 10 9 9 14 15 17 18 18 8 8 5 11 21 31 32 32 33 29 27 29
33 33 34 34 35 37 38 36 33 32 27 27 28 34 33 33 35 32 29 24 24 20 16 14 12 8 8 11 14 14 15 19 12 10 7 2 13 21 32 35 30 31 32 32
33 35 37 40 37 37 39 36 39 37 34 29 29 32 32 38 35 34 32 29 29 25 22 17 14 13 10 8 12 13 14 16 16 9 7 2 5 12 20 29 27 31 33 33
35 35 39 39 41 40 38 38 41 42 39 34 32 33 31 34 39 39 38 36 36 29 26 24 22 17 13 10 9 13 12 13 15 8 6 2 2 9 19 24 27 32 32 35
41 37 38 41 40 40 39 38 41 42 43 39 35 33 32 33 35 40 40 37 35 35 34 28 27 23 17 14 12 13 11 12 12 6 5 6 7 11 17 22 28 32 36 42
44 43 38 42 40 42 40 37 40 42 46 43 38 37 34 34 32 34 38 40 43 42 41 38 32 27 24 19 15 16 14 11 9 9 5 9 15 13 19 18 25 32 38 46
45 45 41 39 43 43 41 38 38 41 43 45 42 41 38 35 34 35 33 33 34 38 39 41 38 32 30 28 20 19 17 13 10 7 1 10 14 17 21 21 28 33 39 46
41 42 41 38 44 42 42 40 37 38 45 48 45 45 41 39 34 33 33 31 31 32 34 35 36 35 33 31 26 22 20 14 10 4 2 9 16 20 19 25 32 34 41 44
43 45 41 38 43 45 42 40 39 38 45 47 47 51 46 42 38 34 33 32 31 28 28 30 34 36 35 35 33 27 25 23 14 10 3 5 14 18 21 31 36 37 38 40
44 45 42 39 43 47 43 40 39 38 44 48 47 53 49 46 41 38 38 36 31 28 28 30 32 33 36 37 38 34 30 30 23 18 11 8 12 15 23 31 35 36 37 40
44 43 42 40 45 46 45 41 40 39 42 46 49 52 51 48 46 44 39 36 35 34 31 30 30 31 34 35 37 39 41 36 33 25 21 15 12 15 20 31 33 33 38 43
45 42 40 41 48 47 44 40 37 36 40 46 50 50 48 46 46 45 42 39 38 36 34 32 33 34 35 36 36 37 39 41 39 35 28 25 21 21 25 28 34 40 41 42
46 41 42 45 47 48 45 41 37 38 41 44 48 49 48 47 46 44 44 42 40 38 37 37 37 37 38 38 38 39 40 41 43 41 36 31 26 27 28 34 37 42 43 45
45 42 43 46 49 48 45 40 36 39 42 45 47 49 48 47 46 44 43 41 39 39 40 40 40 40 40 42 43 43 42 42 45 46 45 40 36 31 31 34 39 41 44 47
43 42 44 48 52 50 45 40 35 37 41 44 45 46 45 45 43 42 39 39 41 41 40 39 40 41 41 42 44 47 47 46 45 47 49 48 44 40 37 37 37 45 49 49
40 44 47 52 55 50 50 41 36 35 36 40 39 38 39 41 40 37 39 41 39 37 36 38 39 41 39 40 42 46 48 50 49 48 50 53 51 47 44 42 40 41 50 54
41 47 50 51 57 56 53 45 38 34 31 32 34 35 35 34 35 36 34 31 31 30 31 31 33 34 34 35 37 43 47 48 51 52 52 53 57 56 52 50 47 44 43 46
44 49 52 56 58 56 55 48 43 37 34 32 30 30 29 29 29 26 27 26 27 28 30 31 33 36 38 39 39 39 41 48 49 54 56 57 58 62 62 59 54 52 48 47
45 47 52 58 62 58 56 52 46 42 40 36 32 28 26 25 25 24 25 25 26 26 27 27 29 32 34 37 39 42 43 46 48 54 56 60 62 62 66 67 63 58 55 52
46 48 55 62 63 60 58 56 51 46 43 40 37 35 33 31 28 25 25 24 24 24 25 26 27 30 32 34 36 39 45 49 52 55 58 60 62 66 67 70 70 67 62 58
47 49 55 62 64 65 59 61 58 55 51 48 44 40 37 33 29 27 25 25 25 26 27 30 30 30 33 33 36 41 44 49 54 57 61 64 65 66 69 72 73 74 71 67
52 52 54 61 62 62 61 60 58 56 52 48 43 40 37 33 30 28 28 26 27 27 27 28 30 31 31 32 36 38 48 51 54 59 62 65 68 69 71 74 76 75 77 75
49 54 56 58 58 62 64 63 55 49 48 47 47 43 39 35 32 30 30 30 29 30 30 29 31 32 31 33 37 42 45 44 48 54 60 67 68 74 76 75 74 76 78 78
47 54 59 62 63 66 64 59 53 46 42 40 40 39 38 36 34 33 33 33 34 34 34 33 34 34 34 36 40 41 44 41 47 51 57 63 69 72 73 74 76 75 77 79
Wind_Direction
261 258 258 251 250 248 253 255 256 246 233 229 230 231 231 234 237 241 243 243 240 259 284 302 351 357 5 19 28 25 24 350 217 221 223 222 223 217 211 211 215 212 211 214
264 258 254 252 246 245 244 247 250 252 245 235 231 231 230 232 233 238 236 236 230 243 259 279 321 343 353 4 22 28 23 11 287 237 239 233 226 222 216 217 213 213 208 201
264 261 255 250 246 244 241 243 246 248 251 242 238 235 234 226 233 227 222 236 227 231 246 266 274 322 335 349 7 32 15 16 338 320 297 237 213 211 214 218 216 214 202 189
266 260 253 251 248 247 242 238 241 244 245 246 244 241 235 232 231 235 226 222 237 229 242 263 263 290 322 335 348 18 23 15 2 352 341 240 202 201 209 211 209 206 193 183
270 262 253 249 251 250 247 241 237 238 239 238 242 244 236 234 229 215 219 217 223 235 248 254 260 281 296 320 337 1 24 14 14 11 1 137 152 183 195 205 200 193 187 184
275 268 255 250 249 250 248 243 236 235 236 237 237 239 238 237 233 227 217 210 220 224 230 246 255 269 277 297 320 336 9 18 19 39 31 134 182 160 180 190 192 189 189 186
272 268 258 248 248 249 249 244 239 235 233 232 236 239 239 239 236 233 224 220 221 229 226 241 247 259 266 279 293 320 339 14 18 33 90 143 151 154 164 179 187 189 184 185
272 268 262 247 245 245 247 245 240 233 230 228 229 235 236 237 237 237 235 233 233 239 249 253 253 247 250 258 274 292 308 337 8 15 150 148 172 181 183 178 176 182 184 184
271 270 265 247 241 242 244 246 242 234 229 226 226 232 233 233 232 235 237 234 233 235 239 247 248 244 240 244 246 266 284 301 328 5 78 179 167 181 180 182 181 184 187 186
269 271 264 252 239 240 242 244 244 236 228 224 223 228 229 233 233 234 235 233 232 232 233 236 242 243 240 240 236 245 261 273 290 337 336 185 183 177 187 189 186 186 187 187
266 268 265 252 237 235 238 240 245 240 228 225 222 227 226 231 231 232 235 237 235 232 232 234 235 238 238 236 236 236 245 257 254 267 236 203 188 194 194 190 185 183 186 190
268 267 262 250 236 233 236 238 242 237 229 223 222 229 227 228 230 234 234 235 237 234 232 233 236 238 240 237 234 233 237 244 249 249 252 203 192 198 196 192 188 186 188 190
273 266 258 245 233 230 233 236 240 235 231 224 220 226 226 227 230 233 237 239 242 244 242 240 236 234 239 239 238 234 236 238 243 239 239 232 182 198 205 198 198 202 196 195
272 264 249 238 229 227 232 235 239 236 229 224 220 223 227 228 232 234 237 241 243 247 248 244 242 239 237 238 238 238 235 233 235 236 231 236 221 202 204 208 209 200 200 203
267 259 239 232 223 224 224 229 236 233 225 221 221 221 223 225 228 232 235 239 243 246 248 249 246 244 241 239 239 238 237 232 230 234 231 228 233 209 208 212 212 213 212 209
258 251 232 225 220 221 221 222 230 231 223 216 218 221 223 226 228 232 237 240 245 245 245 247 249 249 245 242 240 239 240 236 231 227 230 228 226 228 222 215 218 220 218 214
249 238 227 218 217 217 215 217 227 229 221 217 216 220 222 227 230 234 239 243 245 247 249 251 250 249 248 245 242 240 239 239 236 232 228 230 227 225 227 224 220 219 223 220
240 228 222 211 213 213 211 214 219 223 217 213 213 213 217 221 226 231 234 240 246 248 249 250 250 250 247 244 243 244 240 238 238 236 233 229 229 225 225 228 227 223 220 223
230 222 218 206 209 210 209 208 212 215 207 202 201 203 208 215 220 228 237 242 246 246 244 246 249 251 249 246 244 245 244 240 237 236 236 233 231 228 226 226 227 226 223 224
225 219 212 206 210 209 209 207 208 204 205 202 201 205 210 217 222 230 237 243 247 250 250 250 251 252 253 252 251 248 249 245 241 237 236 236 232 232 228 228 226 226 228 229
222 215 206 208 209 207 208 208 210 204 202 203 206 212 219 226 231 236 239 241 249 253 252 254 257 258 258 256 254 253 250 247 244 240 239 236 235 233 232 227 226 228 227 231
217 209 201 206 210 207 207 209 210 211 209 210 213 219 225 230 235 240 239 246 250 253 258 261 265 267 267 264 261 258 255 251 246 242 239 238 238 236 235 231 228 227 228 228
215 204 201 205 211 210 206 210 209 210 213 216 220 222 224 227 232 235 238 244 248 253 261 264 267 271 273 271 271 269 265 264 259 250 242 238 235 237 237 233 231 229 227 229
210 207 200 205 212 212 212 213 213 213 216 219 221 226 229 232 232 233 236 242 250 254 262 271 269 274 271 274 276 276 285 276 263 254 250 244 238 236 236 235 233 231 229 229
211 207 200 205 211 215 215 214 215 216 221 225 230 230 232 233 234 239 241 245 253 258 266 274 276 276 273 280 280 280 294 288 269 254 249 245 240 238 234 235 234 233 231 231
213 208 203 207 212 214 211 209 213 216 219 222 226 227 229 232 235 241 246 248 253 258 265 275 279 279 278 285 289 288 296 289 269 263 259 249 243 240 238 234 234 234 233 232
Height
10896 10898 10900 10902 10903 10904 10905 10907 10908 10910 10914 10917 10921 10925 10930 10935 10938 10940 10943 10945 10946 10947 10949 10949 10948 10945 10943 10941 10939 10936 10934 10932 10932 10933 10934 10935 10937 10941 10945 10949 10953 10957 10962 10968
10890 10891 10892 10894 10896 10896 10899 10901 10903 10905 10907 10911 10915 10919 10923 10929 10934 10936 10938 10941 10943 10944 10945 10946 10946 10945 10943 10941 10939 10936 10933 10931 10930 10930 10930 10929 10931 10936 10941 10945 10950 10954 10960 10965
10882 10884 10885 10885 10887 10888 10891 10895 10899 10901 10903 10905 10907 10910 10916 10924 10927 10931 10933 10936 10938 10940 10941 10943 10944 10944 10943 10940 10938 10936 10934 10930 10928 10927 10924 10922 10923 10929 10935 10941 10947 10952 10956 10961
10874 10876 10877 10878 10878 10881 10883 10889 10892 10895 10898 10900 10902 10904 10911 10915 10920 10924 10928 10931 10933 10936 10938 10939 10941 10941 10941 10940 10937 10935 10934 10930 10925 10924 10921 10919 10921 10923 10928 10935 10942 10949 10955 10959
10866 10866 10868 10869 10871 10872 10875 10881 10884 10887 10891 10895 10897 10898 10904 10906 10912 10918 10921 10925 10928 10931 10933 10935 10937 10938 10939 10938 10937 10935 10933 10930 10926 10924 10922 10920 10921 10923 10928 10936 10941 10948 10954 10959
10856 10856 10856 10860 10862 10863 10867 10871 10873 10878 10883 10888 10890 10892 10895 10899 10903 10909 10915 10919 10923 10925 10928 10931 10933 10936 10936 10937 10936 10935 10932 10931 10928 10925 10923 10924 10925 10926 10930 10936 10941 10946 10953 10959
10845 10845 10846 10849 10852 10854 10856 10860 10864 10869 10873 10879 10884 10886 10890 10891 10896 10901 10907 10912 10916 10919 10923 10927 10930 10932 10933 10934 10934 10934 10932 10931 10929 10927 10925 10926 10928 10930 10932 10936 10940 10945 10950 10957
10832 10833 10835 10838 10842 10844 10847 10850 10854 10859 10863 10870 10877 10878 10882 10885 10889 10892 10897 10905 10910 10912 10914 10918 10923 10927 10928 10930 10932 10932 10933 10930 10929 10928 10925 10926 10929 10932 10934 10937 10941 10946 10951 10956
10820 10821 10823 10827 10831 10834 10837 10841 10843 10849 10855 10861 10867 10870 10874 10877 10881 10886 10890 10896 10901 10905 10908 10911 10915 10920 10924 10926 10928 10930 10931 10931 10930 10928 10927 10926 10928 10931 10934 10937 10941 10946 10951 10956
10810 10809 10812 10815 10820 10823 10827 10831 10834 10837 10842 10849 10857 10860 10866 10870 10875 10878 10883 10888 10893 10897 10902 10905 10908 10912 10917 10921 10924 10926 10928 10929 10929 10929 10927 10926 10927 10930 10933 10935 10939 10944 10950 10956
10798 10798 10801 10804 10808 10812 10817 10820 10823 10827 10832 10839 10848 10849 10856 10862 10867 10872 10876 10880 10885 10891 10895 10898 10901 10904 10908 10913 10917 10920 10924 10925 10926 10927 10927 10927 10927 10928 10931 10934 10936 10940 10946 10952
10786 10787 10789 10792 10797 10801 10807 10810 10813 10817 10820 10828 10837 10839 10849 10854 10860 10865 10868 10872 10877 10883 10888 10892 10894 10897 10900 10905 10909 10914 10917 10920 10922 10924 10926 10926 10926 10929 10932 10936 10939 10941 10944 10948
10773 10775 10776 10780 10784 10790 10795 10800 10804 10807 10812 10820 10826 10830 10838 10845 10851 10856 10861 10866 10870 10874 10880 10884 10888 10891 10893 10896 10899 10904 10908 10913 10916 10920 10923 10924 10924 10928 10932 10936 10940 10944 10946 10949
10758 10761 10763 10767 10771 10779 10788 10792 10794 10798 10803 10808 10815 10822 10829 10838 10843 10849 10854 10858 10862 10866 10870 10874 10878 10882 10885 10888 10891 10894 10899 10904 10909 10913 10917 10920 10921 10924 10927 10931 10935 10939 10942 10945
10743 10746 10749 10753 10761 10769 10776 10781 10785 10788 10793 10799 10805 10813 10819 10826 10833 10839 10844 10849 10854 10858 10861 10863 10867 10871 10875 10878 10882 10885 10888 10893 10898 10904 10909 10913 10916 10918 10921 10925 10929 10934 10936 10939
10726 10730 10735 10742 10750 10760 10767 10771 10775 10779 10783 10788 10795 10802 10810 10817 10823 10830 10835 10840 10845 10848 10850 10853 10856 10860 10864 10867 10870 10874 10878 10882 10887 10892 10898 10904 10908 10912 10915 10919 10924 10928 10931 10934
10710 10714 10722 10731 10740 10750 10759 10762 10768 10771 10774 10780 10787 10794 10802 10809 10816 10821 10827 10830 10833 10836 10841 10844 10846 10848 10852 10856 10859 10862 10866 10871 10875 10881 10886 10891 10898 10902 10907 10910 10914 10918 10923 10928
10695 10700 10707 10718 10728 10742 10745 10756 10761 10765 10769 10774 10780 10788 10794 10800 10808 10814 10817 10820 10824 10829 10832 10833 10835 10837 10841 10844 10846 10849 10854 10859 10863 10868 10873 10879 10885 10891 10897 10901 10904 10907 10912 10918
10680 10686 10695 10710 10719 10728 10737 10747 10755 10761 10766 10771 10776 10782 10789 10795 10801 10805 10810 10814 10817 10820 10822 10824 10826 10828 10831 10833 10836 10838 10840 10845 10851 10856 10860 10865 10871 10876 10883 10888 10892 10897 10902 10907
10666 10673 10685 10697 10710 10720 10729 10740 10746 10755 10762 10768 10773 10778 10783 10788 10793 10800 10802 10806 10809 10811 10813 10815 10817 10818 10820 10823 10825 10828 10830 10833 10837 10841 10846 10851 10856 10861 10866 10873 10879 10885 10890 10894
10655 10664 10678 10688 10699 10710 10722 10732 10741 10747 10756 10762 10768 10773 10779 10784 10788 10792 10795 10798 10800 10802 10804 10806 10807 10808 10810 10812 10814 10816 10819 10821 10823 10826 10829 10835 10840 10845 10850 10857 10863 10870 10877 10883
10643 10653 10667 10678 10690 10702 10711 10723 10732 10742 10748 10754 10760 10765 10770 10775 10781 10785 10788 10790 10792 10794 10796 10798 10799 10799 10800 10800 10801 10803 10805 10807 10808 10811 10815 10819 10823 10828 10834 10840 10848 10855 10862 10868
10634 10646 10657 10669 10677 10687 10702 10711 10720 10729 10738 10746 10753 10758 10762 10767 10772 10776 10780 10782 10784 10787 10788 10789 10789 10790 10789 10790 10790 10790 10791 10789 10788 10792 10798 10801 10806 10811 10814 10821 10830 10838 10846 10851
10625 10635 10649 10658 10670 10683 10692 10701 10711 10721 10730 10738 10744 10750 10755 10759 10764 10768 10771 10774 10776 10778 10780 10780 10780 10780 10779 10779 10777 10776 10773 10768 10770 10772 10775 10778 10785 10790 10794 10799 10808 10817 10827 10835
10619 10630 10643 10653 10661 10670 10679 10690 10702 10713 10722 10729 10735 10741 10747 10752 10756 10759 10763 10766 10768 10769 10771 10771 10770 10769 10768 10767 10765 10762 10756 10752 10748 10748 10749 10753 10759 10766 10773 10782 10792 10800 10807 10815
10614 10625 10635 10642 10649 10656 10669 10684 10696 10707 10714 10721 10726 10732 10737 10743 10746 10751 10754 10757 10759 10759 10760 10761 10760 10758 10756 10754 10750 10746 10742 10736 10730 10728 10728 10729 10735 10743 10753 10764 10770 10778 10787 10797